Location: Tel Aviv
(32.0670°N, 34.7670°E)
Time: 12:17:14
(UTC+03:00)

Transit 2A - Pass Details

Date: 24 January 2022
Orbit: 598 x 960 km, 66.7° (Epoch: 20 May)

Event Time Altitude Azimuth Distance (km) Brightness Sun altitude
Rises 12:02:00 0° 241° (WSW) 3,473 9.7 38.7°
Reaches altitude 10° 12:04:57 10° 255° (WSW) 2,587 9.0 38.7°
Maximum altitude 12:09:44 24° 307° (NW) 1,854 8.0 38.6°
Drops below altitude 10° 12:14:42 10° 359° (N) 2,692 8.4 38.5°
Sets 12:17:52 0° 13° (NNE) 3,647 9.0 38.4°
